N6ZQK Weather Reports


Display with metric or nautical units.
time (UTC)temp
F
wind
direction
speed
MPH
gust
MPH
rain 1hr
in
rain 24hr
in
rain mn
in
humidity
%
barometer
mb
20260505200603 51 307 4.0 9.0 0.00 1.40 0.24 89 1014.5
20260505200003 51 310 4.0 8.0 0.00 1.41 0.24 89 1014.5
20260505195403 51 297 2.0 8.0 0.00 1.44 0.24 89 1014.6
20260505194803 51 280 1.0 6.0 0.00 1.46 0.24 89 1014.6
20260505194203 51 308 2.0 9.0 0.00 1.46 0.24 87 1014.6
20260505193624 51 313 3.0 9.0 0.00 1.47 0.24 88 1014.5
20260505193003 51 318 4.0 8.0 0.00 1.47 0.24 88 1014.5
20260505192424 50 316 4.0 8.0 0.00 1.47 0.24 88 1014.4
20260505191803 50 314 1.0 5.0 0.00 1.47 0.24 89 1014.4
20260505191203 50 331 2.0 7.0 0.00 1.47 0.24 90 1014.5
20260505190603 50 330 2.0 7.0 0.00 1.47 0.24 91 1014.4
20260505190003 50 316 1.0 5.0 0.00 1.47 0.24 91 1014.4
20260505185403 49 313 2.0 6.0 0.00 1.47 0.24 91 1014.4
20260505184824 49 312 2.0 6.0 0.00 1.47 0.24 90 1014.3
20260505184203 49 312 1.0 5.0 0.00 1.47 0.24 90 1014.4
20260505183603 49 310 2.0 6.0 0.00 1.47 0.24 91 1014.5
20260505183003 49 300 1.0 6.0 0.00 1.47 0.24 91 1014.5
20260505182424 49 286 1.0 6.0 0.00 1.47 0.24 92 1014.4
20260505181824 49 283 1.0 6.0 0.00 1.47 0.24 91 1014.3
20260505181203 48 300 1.0 6.0 0.00 1.47 0.24 93 1014.3
20260505180603 48 304 2.0 5.0 0.00 1.47 0.24 92 1014.3
20260505180003 48 302 2.0 6.0 0.00 1.47 0.24 92 1014.2
20260505175403 48 305 2.0 6.0 0.00 1.47 0.24 93 1014.2
20260505174803 48 305 2.0 6.0 0.00 1.47 0.24 92 1014.2
20260505174203 48 293 2.0 6.0 0.00 1.47 0.24 92 1014.1
20260505173603 49 175 1.0 6.0 0.00 1.47 0.24 93 1014.0
20260505173024 48 141 0.0 2.0 0.00 1.47 0.24 93 1013.9
20260505172403 48 141 0.0 2.0 0.00 1.47 0.24 92 1014.0
20260505171803 48 0 0.0 0.0 0.00 1.47 0.24 92 1013.9
20260505171203 48 0 0.0 0.0 0.00 1.47 0.24 92 1014.1
20260505170603 48 141 0.0 2.0 0.00 1.47 0.24 92 1014.0
20260505170024 48 141 0.0 4.0 0.00 1.47 0.24 92 1013.9
20260505165403 48 141 0.0 4.0 0.00 1.47 0.24 91 1014.0
20260505164803 48 141 0.0 1.0 0.00 1.47 0.24 91 1013.9
20260505164203 47 141 0.0 2.0 0.00 1.47 0.24 91 1013.9
20260505163603 47 141 1.0 5.0 0.00 1.47 0.24 93 1013.9
20260505163003 47 141 1.0 5.0 0.00 1.47 0.24 92 1014.0
20260505162403 47 141 0.0 4.0 0.00 1.47 0.24 93 1013.9
20260505161803 47 141 0.0 2.0 0.00 1.47 0.24 94 1013.7
20260505161203 46 141 1.0 4.0 0.00 1.47 0.24 93 1013.8
20260505160603 46 141 2.0 5.0 0.00 1.47 0.24 93 1013.6
20260505153024 46 141 0.0 2.0 0.01 1.47 0.24 95 1013.6
20260505152403 46 140 0.0 2.0 0.01 1.47 0.24 95 1013.7
20260505151803 46 140 1.0 4.0 0.01 1.47 0.24 95 1013.6
20260505151203 46 140 1.0 5.0 0.01 1.47 0.24 95 1013.5
20260505150603 46 141 2.0 7.0 0.01 1.47 0.24 95 1013.4
20260505140603 45 154 2.0 6.0 0.00 1.46 0.23 95 1013.0
20260505124803 45 131 3.0 6.0 0.00 1.46 0.23 95 1012.8
20260505124203 45 114 3.0 6.0 0.00 1.46 0.23 95 1012.9
20260505123603 45 109 2.0 5.0 0.00 1.46 0.23 95 1012.8
20260505123003 45 109 1.0 5.0 0.00 1.46 0.23 95 1012.6
20260505122403 45 109 1.0 5.0 0.00 1.46 0.23 95 1012.5
20260505121803 45 109 1.0 5.0 0.00 1.46 0.23 95 1012.5
20260505121203 45 109 2.0 5.0 0.00 1.46 0.23 95 1012.5
20260505120603 45 109 1.0 5.0 0.00 1.46 0.23 95 1012.5
20260505120004 45 109 1.0 5.0 0.00 1.46 0.23 95 1012.4
20260505115403 45 109 1.0 4.0 0.00 1.46 0.23 95 1012.4
20260505114803 45 109 1.0 5.0 0.00 1.46 0.23 95 1012.4
20260505114203 45 109 1.0 5.0 0.00 1.46 0.23 95 1012.3
20260505113603 45 109 1.0 5.0 0.01 1.46 0.23 95 1012.4
20260505113003 45 109 1.0 5.0 0.01 1.46 0.23 95 1012.4
20260505112403 45 110 1.0 7.0 0.01 1.46 0.23 95 1012.5
20260505111803 45 113 2.0 7.0 0.01 1.46 0.23 95 1012.7
20260505111203 45 114 1.0 5.0 0.02 1.46 0.23 95 1012.7
20260505110603 45 121 1.0 7.0 0.02 1.46 0.23 95 1012.7
20260505101803 45 130 0.0 5.0 0.05 1.45 0.22 95 1012.6
20260505101203 45 130 1.0 4.0 0.03 1.44 0.21 95 1012.7
20260505100624 45 130 1.0 5.0 0.05 1.44 0.21 95 1012.8
20260505100003 45 130 1.0 5.0 0.05 1.44 0.21 95 1012.7
20260505095403 45 130 0.0 4.0 0.05 1.43 0.20 95 1012.7
20260505094803 45 130 1.0 5.0 0.05 1.43 0.20 95 1012.6
20260505094203 45 127 2.0 8.0 0.06 1.43 0.20 95 1012.7
20260505093603 45 118 1.0 8.0 0.06 1.41 0.18 95 1013.0
20260505093003 45 115 1.0 5.0 0.06 1.41 0.18 95 1012.9
20260505092403 45 115 2.0 6.0 0.06 1.40 0.17 95 1013.0
20260505091824 45 115 1.0 6.0 0.06 1.40 0.17 95 1013.0
20260505091203 45 115 0.0 4.0 0.07 1.40 0.17 95 1013.2
20260505090603 45 115 0.0 2.0 0.06 1.39 0.16 95 1013.2
20260505090003 45 115 0.0 5.0 0.07 1.39 0.16 95 1013.3
20260505085403 45 115 1.0 5.0 0.07 1.38 0.15 95 1013.1
20260505084803 45 115 1.0 7.0 0.08 1.38 0.15 95 1013.3
20260505084203 45 117 2.0 7.0 0.07 1.37 0.14 95 1013.4
20260505083603 45 123 1.0 5.0 0.07 1.36 0.13 95 1013.4
20260505083003 45 124 2.0 6.0 0.08 1.36 0.13 95 1013.5
20260505082403 45 131 2.0 6.0 0.08 1.35 0.12 95 1013.5
20260505081803 45 142 1.0 5.0 0.08 1.35 0.12 95 1013.6
20260505081203 45 142 0.0 4.0 0.08 1.33 0.10 95 1013.6
20260505080603 45 142 1.0 5.0 0.09 1.33 0.10 95 1013.6
20260505080003 45 142 1.0 5.0 0.09 1.32 0.09 95 1013.6
20260505075424 45 142 1.0 4.0 0.09 1.31 0.08 95 1013.5
20260505074803 45 142 1.0 5.0 0.08 1.30 0.07 95 1013.6
20260505074203 45 142 1.0 4.0 0.09 1.30 0.07 95 1013.4
20260505073603 45 142 0.0 2.0 0.09 1.29 0.06 95 1013.3
20260505073003 45 142 0.0 2.0 0.09 1.28 0.05 95 1013.3
20260505072403 45 142 0.0 2.0 0.09 1.26 0.03 95 1013.4
20260505071824 45 142 0.0 2.0 0.10 1.26 0.03 95 1013.4
20260505071203 45 142 0.0 2.0 0.10 1.25 0.02 95 1013.3
20260505070603 45 142 0.0 2.0 0.09 1.24 0.01 95 1013.4
20260505070003 45 142 0.0 2.0 0.10 1.23 0.00 95 1013.1
20260505065424 45 142 0.0 2.0 0.09 1.22 1.23 95 1013.2
20260505064803 45 0 0.0 0.0 0.12 1.22 1.22 95 1013.6
20260505064203 45 0 0.0 0.0 0.10 1.21 1.21 95 1013.5
20260505063603 45 0 0.0 0.0 0.12 1.20 1.20 95 1013.4
20260505063003 45 0 0.0 0.0 0.10 1.18 1.18 95 1013.4
20260505062403 45 0 0.0 0.0 0.10 1.17 1.17 95 1013.2
20260505061803 45 142 0.0 2.0 0.10 1.16 1.16 95 1013.3
20260505061203 45 142 0.0 2.0 0.10 1.15 1.15 95 1013.7
20260505060603 45 0 0.0 0.0 0.12 1.15 1.15 95 1013.5
20260505060003 45 142 0.0 1.0 0.10 1.13 1.13 95 1013.3
20260505055403 45 142 0.0 4.0 0.12 1.13 1.13 95 1013.7
20260505054803 45 142 1.0 4.0 0.09 1.10 1.10 95 1013.7
20260505054203 45 142 0.0 2.0 0.10 1.10 1.10 95 1013.1
20260505053603 45 0 0.0 0.0 0.09 1.08 1.08 95 1013.3
20260505053024 45 0 0.0 0.0 0.10 1.08 1.08 95 1013.2
20260505052403 45 0 0.0 0.0 0.10 1.07 1.07 95 1013.2
20260505051803 45 142 0.0 2.0 0.09 1.06 1.06 95 1013.4
20260505051203 45 142 0.0 2.0 0.09 1.05 1.05 95 1013.3
20260505050603 45 142 0.0 2.0 0.09 1.03 1.04 95 1013.4
20260505041203 45 142 0.0 2.0 0.13 0.95 0.95 95 1013.6
20260505040603 45 142 0.0 1.0 0.14 0.94 0.94 95 1013.7
20260505040003 45 0 0.0 0.0 0.13 0.93 0.93 95 1013.7
20260505035403 45 0 0.0 0.0 0.14 0.92 0.92 95 1013.6
20260505034803 45 142 0.0 2.0 0.14 0.91 0.91 95 1013.5
20260505034224 45 142 0.0 2.0 0.14 0.90 0.90 95 1013.4
20260505033603 45 0 0.0 0.0 0.13 0.89 0.89 95 1013.6
20260505033003 45 0 0.0 0.0 0.13 0.87 0.87 95 1013.6
20260505032403 45 142 0.0 2.0 0.12 0.85 0.85 95 1013.7
20260505031824 45 142 0.0 2.0 0.12 0.84 0.84 94 1013.6
20260505031224 45 0 0.0 0.0 0.12 0.83 0.83 94 1013.7
20260505030603 45 0 0.0 0.0 0.09 0.80 0.81 94 1013.8
20260505030003 45 0 0.0 0.0 0.12 0.80 0.81 94 1013.4
20260505025424 45 0 0.0 0.0 0.09 0.78 0.78 94 1013.4
20260505024803 45 0 0.0 0.0 0.09 0.77 0.77 94 1013.5
20260505024203 45 142 0.0 1.0 0.09 0.76 0.76 94 1013.7
20260505023603 45 142 0.0 1.0 0.10 0.76 0.76 94 1014.0
20260505023003 45 142 0.0 2.0 0.10 0.75 0.75 94 1014.0
20260505022424 45 148 1.0 5.0 0.10 0.74 0.74 94 1013.8
20260505021803 45 150 1.0 5.0 0.10 0.72 0.72 94 1013.3
20260505021203 45 152 2.0 7.0 0.10 0.71 0.71 94 1013.2
20260505020603 45 140 4.0 11.0 0.12 0.71 0.71 94 1012.9
20260505020003 45 134 4.0 11.0 0.10 0.69 0.69 94 1012.9
20260505015403 45 133 3.0 8.0 0.12 0.69 0.69 94 1013.0
20260505014803 46 147 3.0 9.0 0.12 0.68 0.68 94 1012.8
20260505014203 46 162 3.0 9.0 0.12 0.67 0.67 94 1012.7
20260505013603 46 171 1.0 6.0 0.13 0.66 0.66 94 1012.7
20260505013003 46 171 0.0 2.0 0.14 0.64 0.64 94 1013.0
20260505012403 46 171 0.0 1.0 0.14 0.63 0.63 94 1013.2
20260505011803 46 171 0.0 1.0 0.14 0.62 0.62 94 1013.3
20260505011203 46 171 0.0 4.0 0.15 0.61 0.61 94 1013.2
20260505010603 46 171 1.0 5.0 0.15 0.60 0.60 94 1013.0
20260505010003 46 171 1.0 5.0 0.15 0.59 0.59 94 1013.1
20260505005403 46 173 2.0 8.0 0.14 0.57 0.57 94 1013.1
20260505004824 46 166 3.0 8.0 0.15 0.56 0.56 94 1012.9
20260505004203 46 166 3.0 8.0 0.15 0.55 0.55 94 1013.1
20260505003603 46 180 4.0 8.0 0.13 0.53 0.53 94 1013.2
20260505003003 46 177 4.0 9.0 0.10 0.51 0.51 94 1013.1
20260505002403 46 169 4.0 11.0 0.10 0.49 0.49 94 1013.2
20260505001803 46 171 2.0 9.0 0.09 0.48 0.48 94 1013.3
20260505001203 46 182 1.0 6.0 0.07 0.46 0.46 94 1013.5
20260505000603 46 177 2.0 10.0 0.08 0.45 0.45 94 1013.3
20260505000003 46 167 4.0 10.0 0.09 0.44 0.44 94 1013.0
20260504235403 46 165 3.0 7.0 0.12 0.44 0.44 94 1013.0
20260504234803 46 171 4.0 8.0 0.12 0.41 0.41 94 1013.1
20260504234203 46 164 5.0 8.0 0.12 0.40 0.40 94 1013.1
20260504233603 46 163 5.0 10.0 0.12 0.40 0.40 94 1013.3
20260504233003 47 169 5.0 9.0 0.12 0.40 0.40 94 1013.2
20260504232403 46 172 5.0 9.0 0.12 0.39 0.39 94 1013.0
20260504231803 46 175 4.0 10.0 0.13 0.39 0.39 94 1013.1
20260504231203 46 182 5.0 10.0 0.14 0.39 0.39 94 1013.0
20260504230624 46 196 3.0 9.0 0.14 0.37 0.37 94 1013.0
20260504230003 46 209 2.0 4.0 0.13 0.34 0.35 93 1013.0
20260504225403 46 209 2.0 7.0 0.12 0.32 0.32 93 1013.2
20260504224824 47 169 2.0 7.0 0.09 0.30 0.30 93 1013.0
20260504224203 47 169 2.0 7.0 0.09 0.29 0.29 93 1013.8
20260504223603 47 198 2.0 6.0 0.09 0.29 0.29 93 1013.5
20260504223003 47 219 3.0 9.0 0.09 0.29 0.29 93 1013.1
20260504222403 47 238 2.0 9.0 0.09 0.28 0.28 93 1013.1
20260504221803 47 237 1.0 5.0 0.09 0.26 0.26 93 1013.0
20260504221203 47 232 1.0 6.0 0.09 0.25 0.25 93 1013.1
20260504220603 47 235 2.0 6.0 0.09 0.23 0.23 93 1013.1
20260504220003 47 233 1.0 5.0 0.09 0.22 0.22 93 1013.2
20260504215403 47 230 1.0 4.0 0.09 0.21 0.21 93 1013.3
20260504214803 47 242 0.0 3.0 0.09 0.21 0.21 93 1013.2
20260504214203 47 242 1.0 4.0 0.09 0.20 0.20 93 1013.3
20260504213603 47 240 2.0 4.0 0.09 0.20 0.20 93 1013.2
20260504213003 47 236 1.0 4.0 0.09 0.20 0.20 92 1013.2
20260504212403 48 234 2.0 5.0 0.09 0.18 0.18 92 1013.2
20260504211824 48 234 1.0 4.0 0.08 0.17 0.17 92 1013.2
20260504211203 48 234 0.0 2.0 0.08 0.16 0.16 92 1013.3
20260504210603 48 234 0.0 2.0 0.07 0.14 0.14 92 1013.4
20260504210024 48 234 0.0 1.0 0.07 0.13 0.13 92 1013.5
20260504205403 48 0 0.0 0.0 0.08 0.12 0.12 92 1013.5
20260504204803 48 234 0.0 2.0 0.10 0.12 0.12 92 1013.3
20260504204203 48 234 0.0 2.0 0.09 0.10 0.10 92 1013.3
20260504203603 48 234 0.0 2.0 0.10 0.10 0.10 92 1013.3
20260504203003 48 234 0.0 3.0 0.10 0.10 0.10 91 1013.2
20260504202403 48 234 1.0 3.0 0.09 0.09 0.09 91 1013.2
20260504201803 48 234 0.0 3.0 0.09 0.09 0.09 91 1013.2
20260504201203 48 234 1.0 4.0 0.08 0.08 0.08 91 1013.2